Tracking 28790 objects as of 19-Apr-2024
HD Live streaming from Space Station
objects crossing your sky now

XJS G

Track XJS G now!
10-day predictions


NORAD ID: 45611
Int'l Code: 2020-032A
Perigee: 471.8 km
Apogee: 480.3 km
Inclination: 35.0 °
Period: 94.0 minutes
Semi major axis: 6847 km
RCS: Unknown
Launch date: May 29, 2020
Source: People's Republic of China (PRC)
Launch site: Xichang Space Center, China (XSC)
Your satellite tracking list
Your tracking list is empty




NASA's NSSDC Master Catalog

Two Line Element Set (TLE):
1 45611U 20032A   24110.20692583  .00029131  00000-0  90684-3 0  9993
2 45611  35.0314  79.9386 0006175 264.8948  95.1065 15.32318403218295
Source of the keplerian elements: AFSPC